Time,TemperatureF,DewpointF,PressureIn,WindDirection,WindDirectionDegrees,WindSpeedMPH,WindSpeedGustMPH,Humidity,HourlyPrecipIn,Conditions,Clouds,dailyrainin,SolarRadiationWatts/m^2,SoftwareType,DateUTC
2013-07-31 00:02:00,58.0,48.0,-100.00,ENE,61,2.0,3.0,70,0.00,,,0.00,0.000000,,2013-07-31 07:02:00,
2013-07-31 00:32:00,57.0,47.0,-100.00,NE,49,1.0,3.0,69,0.00,,,0.00,0.000000,,2013-07-31 07:32:00,
2013-07-31 00:43:00,57.0,47.0,-100.00,NE,49,1.0,3.0,69,0.00,,,0.00,0.000000,,2013-07-31 07:43:00,
2013-07-31 00:52:00,57.0,47.0,-100.00,NE,49,1.0,3.0,69,0.00,,,0.00,0.000000,,2013-07-31 07:52:00,
2013-07-31 01:02:00,57.0,47.0,-100.00,NE,49,1.0,3.0,69,0.00,,,0.00,0.000000,,2013-07-31 08:02:00,
2013-07-31 01:33:00,57.0,47.0,-100.00,NE,52,1.0,3.0,70,0.00,,,0.00,0.000000,,2013-07-31 08:33:00,
2013-07-31 01:42:00,57.0,47.0,-100.00,NE,52,1.0,3.0,70,0.00,,,0.00,0.000000,,2013-07-31 08:42:00,
2013-07-31 01:53:00,57.0,47.0,-100.00,NE,52,1.0,3.0,70,0.00,,,0.00,0.000000,,2013-07-31 08:53:00,
2013-07-31 02:02:00,57.0,47.0,-100.00,NE,52,1.0,3.0,70,0.00,,,0.00,0.000000,,2013-07-31 09:02:00,
2013-07-31 02:44:00,57.0,48.0,-100.00,NNE,23,1.0,3.0,73,0.00,,,0.00,0.000000,,2013-07-31 09:44:00,
2013-07-31 02:52:00,57.0,48.0,-100.00,NNE,23,1.0,3.0,73,0.00,,,0.00,0.000000,,2013-07-31 09:52:00,
2013-07-31 03:02:00,57.0,48.0,-100.00,NNE,23,1.0,3.0,73,0.00,,,0.00,0.000000,,2013-07-31 10:02:00,
2013-07-31 03:32:00,57.0,49.0,-100.00,ENE,58,0.0,2.0,74,0.00,,,0.00,0.000000,,2013-07-31 10:32:00,
2013-07-31 03:44:00,57.0,49.0,-100.00,ENE,58,0.0,2.0,74,0.00,,,0.00,0.000000,,2013-07-31 10:44:00,
2013-07-31 03:52:00,57.0,49.0,-100.00,ENE,58,0.0,2.0,74,0.00,,,0.00,0.000000,,2013-07-31 10:52:00,
2013-07-31 04:03:00,57.0,49.0,-100.00,ENE,58,0.0,2.0,74,0.00,,,0.00,0.000000,,2013-07-31 11:03:00,
2013-07-31 04:33:00,57.0,49.0,-100.00,East,88,0.0,2.0,75,0.00,,,0.00,0.000000,,2013-07-31 11:33:00,
2013-07-31 04:43:00,57.0,49.0,-100.00,East,88,0.0,2.0,75,0.00,,,0.00,0.000000,,2013-07-31 11:43:00,
2013-07-31 04:53:00,57.0,49.0,-100.00,East,88,0.0,2.0,75,0.00,,,0.00,0.000000,,2013-07-31 11:53:00,
2013-07-31 05:02:00,57.0,49.0,-100.00,East,88,0.0,2.0,75,0.00,,,0.00,0.000000,,2013-07-31 12:02:00,
2013-07-31 05:33:00,56.0,49.0,-100.00,East,91,1.0,2.0,78,0.00,,,0.00,0.000000,,2013-07-31 12:33:00,
2013-07-31 05:43:00,56.0,49.0,-100.00,East,91,1.0,2.0,78,0.00,,,0.00,0.000000,,2013-07-31 12:43:00,
2013-07-31 05:52:00,56.0,49.0,-100.00,East,91,1.0,2.0,78,0.00,,,0.00,0.000000,,2013-07-31 12:52:00,
2013-07-31 06:02:00,56.0,49.0,-100.00,East,91,1.0,2.0,78,0.00,,,0.00,0.000000,,2013-07-31 13:02:00,
2013-07-31 06:43:00,56.0,51.0,-100.00,NNE,31,0.0,3.0,82,0.00,,,0.00,1.000000,,2013-07-31 13:43:00,
2013-07-31 06:53:00,56.0,51.0,-100.00,NNE,31,0.0,3.0,82,0.00,,,0.00,1.000000,,2013-07-31 13:53:00,
2013-07-31 07:02:00,56.0,51.0,-100.00,NNE,31,0.0,3.0,82,0.00,,,0.00,1.000000,,2013-07-31 14:02:00,
2013-07-31 07:43:00,57.0,51.0,-100.00,NE,40,1.0,4.0,81,0.00,,,0.00,19.000000,,2013-07-31 14:43:00,
2013-07-31 07:53:00,57.0,51.0,-100.00,NE,40,1.0,4.0,81,0.00,,,0.00,19.000000,,2013-07-31 14:53:00,
2013-07-31 08:02:00,57.0,51.0,-100.00,NE,40,1.0,4.0,81,0.00,,,0.00,19.000000,,2013-07-31 15:02:00,
2013-07-31 08:44:00,61.0,54.0,-100.00,SSW,192,0.0,3.0,79,0.00,,,0.00,111.000000,,2013-07-31 15:44:00,
2013-07-31 08:53:00,61.0,54.0,-100.00,SSW,192,0.0,3.0,79,0.00,,,0.00,111.000000,,2013-07-31 15:53:00,
2013-07-31 09:02:00,61.0,54.0,-100.00,SSW,192,0.0,3.0,79,0.00,,,0.00,111.000000,,2013-07-31 16:02:00,
2013-07-31 09:44:00,67.0,53.0,-100.00,NNE,22,0.0,4.0,61,0.00,,,0.00,313.000000,,2013-07-31 16:44:00,
2013-07-31 09:52:00,67.0,53.0,-100.00,NNE,22,0.0,4.0,61,0.00,,,0.00,313.000000,,2013-07-31 16:52:00,
2013-07-31 10:02:00,67.0,53.0,-100.00,NNE,22,0.0,4.0,61,0.00,,,0.00,313.000000,,2013-07-31 17:02:00,
2013-07-31 10:33:00,70.0,55.0,-100.00,West,273,1.0,6.0,59,0.00,,,0.00,528.000000,,2013-07-31 17:33:00,
2013-07-31 10:43:00,70.0,55.0,-100.00,West,273,1.0,6.0,59,0.00,,,0.00,528.000000,,2013-07-31 17:43:00,
2013-07-31 10:53:00,70.0,55.0,-100.00,West,273,1.0,6.0,59,0.00,,,0.00,528.000000,,2013-07-31 17:53:00,
2013-07-31 11:02:00,70.0,55.0,-100.00,West,273,1.0,6.0,59,0.00,,,0.00,528.000000,,2013-07-31 18:02:00,
2013-07-31 11:33:00,68.0,54.0,-100.00,WNW,288,3.0,8.0,62,0.00,,,0.00,474.000000,,2013-07-31 18:33:00,
2013-07-31 11:43:00,68.0,54.0,-100.00,WNW,288,3.0,8.0,62,0.00,,,0.00,474.000000,,2013-07-31 18:43:00,
2013-07-31 11:52:00,68.0,54.0,-100.00,WNW,288,3.0,8.0,62,0.00,,,0.00,474.000000,,2013-07-31 18:52:00,
2013-07-31 12:02:00,68.0,54.0,-100.00,WNW,288,3.0,8.0,62,0.00,,,0.00,474.000000,,2013-07-31 19:02:00,
2013-07-31 12:33:00,66.0,56.0,-100.00,WNW,297,3.0,9.0,69,0.00,,,0.00,472.000000,,2013-07-31 19:33:00,
2013-07-31 12:43:00,66.0,56.0,-100.00,WNW,297,3.0,9.0,69,0.00,,,0.00,472.000000,,2013-07-31 19:43:00,
2013-07-31 12:53:00,66.0,56.0,-100.00,WNW,297,3.0,9.0,69,0.00,,,0.00,472.000000,,2013-07-31 19:53:00,
2013-07-31 13:02:00,66.0,56.0,-100.00,WNW,297,3.0,9.0,69,0.00,,,0.00,472.000000,,2013-07-31 20:02:00,
2013-07-31 13:43:00,64.0,54.0,-100.00,NW,313,4.0,10.0,70,0.00,,,0.00,470.000000,,2013-07-31 20:43:00,
2013-07-31 13:53:00,64.0,54.0,-100.00,NW,313,4.0,10.0,70,0.00,,,0.00,470.000000,,2013-07-31 20:53:00,
2013-07-31 14:02:00,64.0,54.0,-100.00,NW,313,4.0,10.0,70,0.00,,,0.00,470.000000,,2013-07-31 21:02:00,
2013-07-31 14:43:00,69.0,57.0,-100.00,SW,220,2.0,6.0,66,0.00,,,0.00,401.000000,,2013-07-31 21:43:00,
2013-07-31 14:53:00,69.0,57.0,-100.00,SW,220,2.0,6.0,66,0.00,,,0.00,401.000000,,2013-07-31 21:53:00,
2013-07-31 15:02:00,69.0,57.0,-100.00,SW,220,2.0,6.0,66,0.00,,,0.00,401.000000,,2013-07-31 22:02:00,
2013-07-31 15:33:00,73.0,59.0,-100.00,SW,220,2.0,6.0,61,0.00,,,0.00,562.000000,,2013-07-31 22:33:00,
2013-07-31 15:43:00,73.0,59.0,-100.00,SW,220,2.0,6.0,61,0.00,,,0.00,562.000000,,2013-07-31 22:43:00,
2013-07-31 15:53:00,73.0,59.0,-100.00,SW,220,2.0,6.0,61,0.00,,,0.00,562.000000,,2013-07-31 22:53:00,
2013-07-31 16:02:00,73.0,59.0,-100.00,SW,220,2.0,6.0,61,0.00,,,0.00,562.000000,,2013-07-31 23:02:00,
2013-07-31 16:32:00,72.0,58.0,-100.00,NW,308,4.0,10.0,61,0.00,,,0.00,623.000000,,2013-07-31 23:32:00,
2013-07-31 16:42:00,72.0,58.0,-100.00,NW,308,4.0,10.0,61,0.00,,,0.00,623.000000,,2013-07-31 23:42:00,
2013-07-31 16:52:00,72.0,58.0,-100.00,NW,308,4.0,10.0,61,0.00,,,0.00,623.000000,,2013-07-31 23:52:00,
2013-07-31 17:02:00,72.0,58.0,-100.00,NW,308,4.0,10.0,61,0.00,,,0.00,623.000000,,2013-08-01 00:02:00,
2013-07-31 17:43:00,67.0,56.0,-100.00,WNW,287,3.0,11.0,69,0.00,,,0.00,492.000000,,2013-08-01 00:43:00,
2013-07-31 17:52:00,67.0,56.0,-100.00,WNW,287,3.0,11.0,69,0.00,,,0.00,492.000000,,2013-08-01 00:52:00,
2013-07-31 18:02:00,67.0,56.0,-100.00,WNW,287,3.0,11.0,69,0.00,,,0.00,492.000000,,2013-08-01 01:02:00,
2013-07-31 18:33:00,64.0,57.0,-100.00,WNW,295,2.0,10.0,78,0.00,,,0.00,204.000000,,2013-08-01 01:33:00,
2013-07-31 18:43:00,64.0,57.0,-100.00,WNW,295,2.0,10.0,78,0.00,,,0.00,204.000000,,2013-08-01 01:43:00,
2013-07-31 18:53:00,64.0,57.0,-100.00,WNW,295,2.0,10.0,78,0.00,,,0.00,204.000000,,2013-08-01 01:53:00,
2013-07-31 19:02:00,64.0,57.0,-100.00,WNW,295,2.0,10.0,78,0.00,,,0.00,204.000000,,2013-08-01 02:02:00,
2013-07-31 19:32:00,66.0,59.0,-100.00,West,270,2.0,9.0,77,0.00,,,0.00,205.000000,,2013-08-01 02:32:00,
2013-07-31 19:43:00,66.0,59.0,-100.00,West,270,2.0,9.0,77,0.00,,,0.00,205.000000,,2013-08-01 02:43:00,
2013-07-31 19:52:00,66.0,59.0,-100.00,West,270,2.0,9.0,77,0.00,,,0.00,205.000000,,2013-08-01 02:52:00,
2013-07-31 20:02:00,66.0,59.0,-100.00,West,270,2.0,9.0,77,0.00,,,0.00,205.000000,,2013-08-01 03:02:00,
2013-07-31 20:32:00,62.0,57.0,-100.00,NW,311,2.0,8.0,84,0.00,,,0.00,119.000000,,2013-08-01 03:32:00,
2013-07-31 20:43:00,62.0,57.0,-100.00,NW,311,2.0,8.0,84,0.00,,,0.00,119.000000,,2013-08-01 03:43:00,
2013-07-31 20:53:00,62.0,57.0,-100.00,NW,311,2.0,8.0,84,0.00,,,0.00,119.000000,,2013-08-01 03:53:00,
2013-07-31 21:02:00,62.0,57.0,-100.00,NW,311,2.0,8.0,84,0.00,,,0.00,119.000000,,2013-08-01 04:02:00,
2013-07-31 21:43:00,58.0,55.0,-100.00,NE,48,1.0,5.0,91,0.00,,,0.00,24.000000,,2013-08-01 04:43:00,
2013-07-31 21:53:00,58.0,55.0,-100.00,NE,48,1.0,5.0,91,0.00,,,0.00,24.000000,,2013-08-01 04:53:00,
2013-07-31 22:02:00,58.0,55.0,-100.00,NE,48,1.0,5.0,91,0.00,,,0.00,24.000000,,2013-08-01 05:02:00,
2013-07-31 22:33:00,57.0,55.0,-100.00,ENE,62,1.0,2.0,93,0.00,,,0.00,0.000000,,2013-08-01 05:33:00,
2013-07-31 22:43:00,57.0,55.0,-100.00,ENE,62,1.0,2.0,93,0.00,,,0.00,0.000000,,2013-08-01 05:43:00,
2013-07-31 22:53:00,57.0,55.0,-100.00,ENE,62,1.0,2.0,93,0.00,,,0.00,0.000000,,2013-08-01 05:53:00,
2013-07-31 23:02:00,57.0,55.0,-100.00,ENE,62,1.0,2.0,93,0.00,,,0.00,0.000000,,2013-08-01 06:02:00,
2013-07-31 23:33:00,57.0,55.0,-100.00,ENE,59,1.0,3.0,92,0.00,,,0.00,0.000000,,2013-08-01 06:33:00,
2013-07-31 23:43:00,57.0,55.0,-100.00,ENE,59,1.0,3.0,92,0.00,,,0.00,0.000000,,2013-08-01 06:43:00,
2013-07-31 23:52:00,57.0,55.0,-100.00,ENE,59,1.0,3.0,92,0.00,,,0.00,0.000000,,2013-08-01 06:52:00,